Miscellaneous Local Product
Issued by NWS Hastings, NE

Home | Current Version | Previous Version | Text Only | Print | Product List | Glossary Off
Versions: 1 2 3 4 5 6 7 8 9 10 11 12 13 14 15 16 17 18 19 20 21 22 23 24 25 26 27 28 29 30 31 32 33 34 35 36 37 38 39 40 41 42 43 44 45 46 47 48 49 50

000
AXUS43 KGID 060002
MISGRI

GID CWA HOURLY WEATHER ROUNDUP
NATIONAL WEATHER SERVICE HASTINGS NE
700 PM CDT TUE MAY 05 2015

NOTE: "FAIR" INDICATES FEW OR NO CLOUDS BELOW 12,000 FEET WITH NO
SIGNIFICANT WEATHER AND/OR OBSTRUCTIONS TO VISIBILITY.

...SOUTH CENTRAL NEBRASKA...

CITY           SKY/WX    TMP DP  RH WIND       PRES   REMARKS
GRAND ISLAND   CLOUDY    71  50  47 S16G22    29.92F
HASTINGS       CLOUDY    71  51  49 SE15G30   29.91F
KEARNEY        CLOUDY    70  50  49 SE21      29.91S
ORD            CLOUDY    71  50  47 SE17G25   29.89S
YORK           CLOUDY    72  55  56 S17G25    29.94S
AURORA         CLOUDY    72  49  44 SE16      29.92F
LEXINGTON      CLOUDY    66  58  75 SE9       29.89F
HOLDREGE       LGT RAIN  61  54  76 S15G32    29.90S
HEBRON         CLOUDY    74  49  40 SE15      29.92F

...NEBRASKA PANHANDLE...

CITY           SKY/WX    TMP DP  RH WIND       PRES   REMARKS
CHADRON        CLOUDY    62  50  64 S12       29.85F
ALLIANCE       LGT RAIN  55  54  96 MISG      29.87F
SCOTTSBLUFF    CLOUDY    57  52  83 SE16      29.85F
SIDNEY         LGT RAIN  54  53  97 E14       29.86F

...WESTERN AND NORTH CENTRAL NEBRASKA...

CITY           SKY/WX    TMP DP  RH WIND       PRES   REMARKS
VALENTINE      CLOUDY    61  58  90 SE8       29.91F
AINSWORTH      CLOUDY    62  61  96 E6        29.92S THUNDER FOG
ONEILL         CLOUDY    73  57  58 SE14G24   29.92F
BROKEN BOW     CLOUDY    66  58  75 S6        29.89F
IMPERIAL       LGT RAIN  57  53  86 SE23G35   29.84F
NORTH PLATTE   CLOUDY    62  58  86 E6        29.88F
MCCOOK         CLOUDY    62  52  69 SE24G33   29.86S

...EASTERN NEBRASKA...

CITY           SKY/WX    TMP DP  RH WIND       PRES   REMARKS
NORFOLK        CLOUDY    73  56  54 SE16      29.94F
SO SIOUX CITY  CLOUDY    74  58  57 SE10      29.97S
TEKAMAH        CLOUDY    76  61  59 SE13      29.97S
COLUMBUS       CLOUDY    72  55  56 SE10      29.96S
ALBION         CLOUDY    71  55  56 SE13G18   29.93S
OMAHA EPPLEY   CLOUDY    75  59  57 SE13      29.97F
MILLARD        CLOUDY    75  59  57 SE9       29.97F
LINCOLN        CLOUDY    74  54  49 SE13G22   29.95F
NEBRASKA CITY  PTSUNNY   74  52  45 SE10      29.98F
BEATRICE       PTSUNNY   75  54  48 SE14      29.95S
FALLS CITY     PTSUNNY   75  56  51 SE10      29.96F

...NORTHERN KANSAS...

CITY           SKY/WX    TMP DP  RH WIND       PRES   REMARKS
GOODLAND       LGT RAIN  56  55  97 SE18G33   29.79F
HILL CITY      LGT RAIN  60  56  86 SE12G22   29.86F FOG
NORTON         CLOUDY    61  50  67 E13G21    29.87F
PHILLIPSBURG   DRIZZLE   66  55  68 SE13G26   29.89F
SMITH CENTER   CLOUDY    64  55  72 S10       29.90F
HAYS           CLOUDY    61  54  77 SE22      29.87F
RUSSELL        LGT RAIN  61  58  90 SE22      29.88F
CONCORDIA      CLOUDY    72  54  53 S14G21    29.91F
SALINA         CLOUDY    70  55  59 S8        29.91F
TOPEKA         RAIN      66  61  84 S16G30    30.01R



USA.gov is the U.S. government's official web portal to all federal, state and local government web resources and services.